CZ-4B DEB, 36289

Orbit data source: Space-Track

CZ-4B DEB, 36289 is space debris in SSO originally from a launch on Sat, 25 Oct 2008 UTC launched from the Taiyaun Space Center, China (TSC). Debris objects in space refer to the collection of defunct objects orbiting the Earth. Examples of debris include non-operational satellites, rocket bodies, and fragments generated from explosions, collisions, or faulty payload assembly.

Loading next visibility...
Identifier
36289, 2008-053K
Orbit
SSO
Country
Flag of CNCN / PRC
Related business
Manufacturer
DFH
Mission
Spacecraft
Bus & Motor
Unknown
Mass
Unknown
Launch date (UTC)
2008-10-25 (18 years ago)
Launch vehicle
Unknown
Launch site
Taiyaun Space Center, China (TSC)
Object type
Payload
Rocket body
Debris
Shape & HBR
Unknown shape, 0.1 m
Radar Cross Section
Small (<0.1 m²)

Expand to show TLE details & history
Last TLE update: 2 days ago

TLE from 2 days ago
0 CZ-4B DEB
1 36289U 08053K   26171.33302721  .00001178  00000-0  87173-4 0  9999
2 36289  97.8322 199.4842 0011802  58.4786 301.7591 15.05125386948540
Epoch: 2026-06-20T07:59Z
TLE epoch observation values (Epoch: 2026-06-20T07:59:33.550Z)
Latitude
-0.00006°
Longitude
171.04526°
Altitude
549.88 km
Speed
7.589 km/s
True Right ascension
13h 17m 56s
True Declination
0° 00' 00"
Sunlit
Object was in daylight at epoch
Visualization orbit readout
Latitude
Unknown
Longitude
Unknown
Altitude
Unknown
Speed
Unknown
Apparent Right ascension
Unknown
Apparent Declination
Unknown
Sunlit
N/A
Visualization observer readout
Local Sidereal Time
23:08:14
Azimuth
Unknown
Elevation
Unknown
Doppler factor
Unknown
Orbital elements
Apogee altitude
556.3 km
Perigee altitude
539.951 km
Semi-major axis
6,926.262 km
Eccentricity
0.00118
Inclination
97.8322°
RAAN
199.4842°
Arg. of periapsis
58.4786°
True anomaly
301.64402°
Mean anomaly
301.7591°
Eccentric anomaly
301.70157°
Mean motion
3.76526 °/min
Orbital period
95.61 mins
BSTAR
0.000087173
Loading maneuver chart data...
Computing Atmospheric mass density...
Loading historical data...
Loading historical data...
Loading historical data...
Loading historical data...
Loading historical data...
Loading historical data...
Loading historical data...

Documentation

Showing up to 5 results
|